FENGYUN 1C DEB

Satellite information

Favourite Embed

Satellite Type and Status

DEBRISIN ORBIT

Key statistics

Satellite FENGYUN 1C DEB at a glance.

Uptime

9556

Days in orbit

Revolutions

≈ 13.8

Per day

Orbit

SSO

Sun Synchronous Orbit

Inclination

98.5

Latest

Satellite identification and parameters

Extended collection of information and parameters for FENGYUN 1C DEB.

Object identification

Identified? True

Debris? True

Object name: FENGYUN 1C DEB

International designator: 1999-025CBX

Object number (NORAD): 31665

Object ID (CCSDS): 31665

Country: PEOPLES REPUBLIC OF CHINA (PRC)

Current information (Y/N): Y

RCS size: SMALL

Orbital parameters

Period: 104.03 minutes

Inclination: 98.4606 deg

SMA: 7327.108 km

Apoapsis: 1086.063 km

Periapsis: 811.884 km

RAAN: 246.1937 deg

Eccentricy: 0.0187099

Argument of periapsis: 262.2051 deg

Mean anomaly: 95.783 deg

Mean motion: 13.84216008 rev/day

Mean motion (dot): 0.00001088 rev/day2

B* drag term: 0.00088273 1/REarth

Two-line elements (TLE)

Creation date: July 6, 2025, 6:05 p.m.

Reference frame: TEME

Reference center: EARTH

Epoch: July 6, 2025, 2:16 p.m. UTC

TLE line 0: 0 FENGYUN 1C DEB

TLE line 1: 1 31665U 99025CBX 25187.59512991 .00001088 00000-0 88273-3 0 9998

TLE line 2: 2 31665 98.4606 246.1937 0187099 262.2051 95.7830 13.84216008909890

Live tracking on map

Real-time ground track for satellite FENGYUN 1C DEB.

In-orbit conjunctions

A list of the most updated potential collisions computed for object FENGYUN 1C DEB.

Target Orbit TCA Probability of collision Miss distance Type
CZ-6A DEB LEO 2025-02-21 00:39:00 0.0007467102 132.0 (m) DEBRIS
NIMBUS 7 SSO 2025-02-03 02:47:28 0.0001138064 693.0 (m) PAYLOAD
COSMOS 700 LEO 2024-09-12 00:16:01 0.0004135564 426.0 (m) PAYLOAD
FAISAT LEO 2024-09-05 23:09:07 0.0001083234 214.0 (m) PAYLOAD
COSMOS 971 LEO 2024-07-10 06:27:09 0.0003037177 167.0 (m) PAYLOAD

Associated space launch

Chinese polar orbiting meteorological satellite

FENGYUN 1C DEB was lifted into orbit during the mission ‘Long March 4B | Feng Yun 1C’, on board a Long March 4B space rocket.

The launch took place on May 10, 1999, 1:33 a.m. from Launch Complex 7.

For more information about the launch, click the button.

Launch to space Long March 4B | Feng Yun 1C
Long March 4B | Feng Yun 1C

Agency: N/A

Status: Launch Successful

Launch date: May 10, 1999, 1:33 a.m. UTC

Rocket: Long March 4B

Launch pad: Launch Complex 7

Location: Taiyuan Satellite Launch Center, People's Republic of China

...

Latest news about this satellite

There are no fresh news available about this satellite. Check back as we update our databases every day.


Newsletter sign-up

Weekly statistics, charts and insights to help you stay on top of the space industry.